Regional Weather Roundup
Issued by NWS Mt. Holly, NJ

Home | Current Version | Previous Version | Text Only | Print | Product List | Glossary On
Versions: 1 2 3 4 5 6 7 8 9 10 11 12 13 14 15 16 17 18 19 20 21 22 23 24 25 26
000
ASUS41 KPHI 120612
RWRPHI

REGIONAL WEATHER ROUNDUP
NATIONAL WEATHER SERVICE MOUNT HOLLY NJ
100 AM EST TUE DEC 12 2017

NOTE:  "FAIR" INDICATES FEW OR NO CLOUDS BELOW 12,000 FEET WITH NO
SIGNIFICANT WEATHER AND/OR OBSTRUCTIONS TO VISIBILITY.

 * = STATION DOES NOT REPORT PRECIPITATION (E.G. RAIN, SNOW, ETC.)
        OR FOG.

NJZ015>026-120700-
SOUTHERN NEW JERSEY

CITY           SKY/WX    TMP DP  RH WIND       PRES   REMARKS
POMONA         CLOUDY    41  32  70 S7        29.89F
6HR MIN TEMP:  27; 6HR MAX TEMP:  41;

WILDWOOD*      PTCLDY    44  33  65 S9        29.88F
MILLVILLE      MOCLDY    35  33  92 SE5       29.86F WCI  31
WRIGHTSTOWN    MOCLDY    31  24  76 SE5       29.86F WCI  26
MOUNT HOLLY    PTCLDY    33  25  72 E6        29.87F WCI  28
TRENTON        MOCLDY    33  23  66 E5        29.88F WCI  29
6HR MIN TEMP:  31; 6HR MAX TEMP:  34;


$$
NJZ001>014-120700-
NORTHERN NEW JERSEY

CITY           SKY/WX    TMP DP  RH WIND       PRES   REMARKS
SUSSEX         CLOUDY    35  24  64 VRB5      29.86F WCI  31
ANDOVER*         N/A     34  21  59 VRB5      29.85F WCI  30
MORRISTOWN     CLOUDY    32  27  80 CALM      29.89F
NEWARK         CLOUDY    39  25  57 SE3       29.91F
TETERBORO      CLOUDY    39  24  55 S6        29.90F WCI  35
CALDWELL       CLOUDY    37  22  54 CALM      29.90F
SOMERVILLE     MOCLDY    33  25  72 CALM      29.87F
ALLAIRE*       CLOUDY    36  27  69 SE6       29.90F WCI  31
TOMS RIVER*    CLOUDY    30  28  92 CALM      29.90F

$$
PAZ043-044-047-054-055-060>062-066>071-120700-
EASTERN PENNSYLVANIA

CITY           SKY/WX    TMP DP  RH WIND       PRES   REMARKS
PHILADELPHIA   CLOUDY    36  27  69 E3        29.87F
6HR MIN TEMP:  35; 6HR MAX TEMP:  38;

NORTH PHILA    PTCLDY    35  24  64 SE5       29.88F WCI  31
BLUE BELL*     PTCLDY    32  27  80 E3        29.87F
DOYLESTOWN     CLOUDY    33  23  66 SE3       29.85F
QUAKERTOWN*    MOCLDY    34  25  69 SE6       29.85F WCI  29
PERKASIE*      FAIR      32  23  69 CALM      29.85F
POTTSTOWN      CLOUDY    33  24  69 CALM      29.86F
LANCASTER      CLOUDY    35  29  78 SE9       29.80F WCI  28
COATESVILLE    CLOUDY    34  27  75 SE5       29.83F WCI  30
READING        MOCLDY    37  27  67 SE9       29.82F WCI  30
6HR MIN TEMP:  35; 6HR MAX TEMP:  37;

ALLENTOWN      MOCLDY    36  22  56 VRB3      29.84F
6HR MIN TEMP:  36; 6HR MAX TEMP:  37;

MOUNT POCONO   CLOUDY    27  20  75 SE9       29.76F WCI  18
6HR MIN TEMP:  27; 6HR MAX TEMP:  28;

HAZLETON       CLOUDY    32  23  69 SE10      29.78F WCI  24
LEHIGHTON      MOCLDY    34  23  64 E5        29.84F WCI  30
WILKES BARRE   CLOUDY    35  23  61 S6        29.77F WCI  30

$$
DEZALL-MDZ008-012-015-019-020-120700-
DELAWARE AND EASTERN MARYLAND

CITY           SKY/WX    TMP DP  RH WIND       PRES   REMARKS
WILMINGTON     PTCLDY    40  30  67 S15       29.85F WCI  32
6HR MIN TEMP:  36; 6HR MAX TEMP:  40;

DOVER          MOCLDY    38  32  80 SE9       29.85F WCI  31
GEORGETOWN     CLOUDY    38  29  70 S8        29.87F WCI  32
6HR MIN TEMP:  28; 6HR MAX TEMP:  38;

EASTON         CLOUDY    40  30  67 S10       29.88F WCI  34
ABERDEEN       CLOUDY   N/A N/A N/A S5        29.85F
PATUXENT       CLOUDY    43  34  70 S9        29.84F
OCEAN CITY     PTCLDY    46  35  65 S6        29.89F
WALLOPS ISLAND PTCLDY    45  37  73 S13       29.89F
CAMBRIDGE      CLEAR     37  32  81 SE12      29.86F WCI  30
SALISBURY      PTCLDY    38  32  79 S6        29.88F WCI  33

$$
PAZ001-021-NYZ056-072-MDZ011-DCZ001-120700-
OTHER NEARBY LOCATIONS

CITY           SKY/WX    TMP DP  RH WIND       PRES   REMARKS
HARRISBURG     CLOUDY    37  28  70 SE10      29.78F WCI  30
STATE COLLEGE  CLOUDY    36  24  61 SW3       29.68F
WILLIAMSPORT   CLOUDY    39  25  57 SE15      29.72F WCI  31
BINGHAMTON     CLOUDY    29  20  69 S10       29.68F WCI  20
NEW YORK CITY  CLOUDY    39  25  57 VRB5      29.92F
BALTIMORE      CLOUDY    41  31  67 VRB5      29.81F
WASHINGTON DC  MOCLDY    41  33  73 S8        29.83F

$$




USA.gov is the U.S. government's official web portal to all federal, state and local government web resources and services.